�������l�o���
Date,Time,MP-1(��Sv/h),MP-2(��Sv/h),MP-3(��Sv/h),MP-4(��Sv/h),MP-5(��Sv/h),MP-6(��Sv/h),MP-7(��Sv/h),MP-8(��Sv/h),����,����(m/s),���J
2019/04/21,00:00,0.776,1.139,0.784,1.452,1.061,0.442,0.779,0.735,��,1.4,��
2019/04/21,00:10,0.778,1.139,0.783,1.451,1.061,0.444,0.779,0.737,��,1.4,��
2019/04/21,00:20,0.777,1.139,0.781,1.451,1.061,0.443,0.780,0.736,��쐼,1.2,��
2019/04/21,00:30,0.776,1.138,0.784,1.450,1.062,0.443,0.778,0.736,�쐼,1.5,��
2019/04/21,00:40,0.776,1.139,0.782,1.448,1.064,0.443,0.780,0.736,��,2.0,��
2019/04/21,00:50,0.776,1.138,0.785,1.450,1.061,0.444,0.779,0.738,��쐼,2.2,��
2019/04/21,01:00,0.777,1.140,0.782,1.453,1.062,0.442,0.779,0.737,��쐼,2.0,��
2019/04/21,01:10,0.778,1.140,0.783,1.447,1.062,0.442,0.779,0.734,��쐼,1.1,��
2019/04/21,01:20,0.778,1.139,0.781,1.447,1.062,0.443,0.779,0.735,-,CALM,��
2019/04/21,01:30,0.777,1.140,0.785,1.447,1.062,0.442,0.779,0.737,�k�k��,1.1,��
2019/04/21,01:40,0.776,1.139,0.784,1.453,1.061,0.441,0.780,0.736,�k,2.6,��
2019/04/21,01:50,0.779,1.139,0.784,1.452,1.060,0.442,0.779,0.735,�k,3.5,��
2019/04/21,02:00,0.777,1.139,0.782,1.451,1.060,0.441,0.779,0.736,�k,3.6,��
2019/04/21,02:10,0.778,1.137,0.782,1.448,1.061,0.441,0.778,0.737,�k,3.8,��
2019/04/21,02:20,0.778,1.140,0.783,1.449,1.062,0.441,0.779,0.736,�k,4.0,��
2019/04/21,02:30,0.777,1.140,0.784,1.450,1.061,0.441,0.779,0.737,�k,4.0,��
2019/04/21,02:40,0.777,1.138,0.782,1.450,1.061,0.443,0.778,0.736,�k,3.7,��
2019/04/21,02:50,0.777,1.136,0.784,1.449,1.061,0.442,0.779,0.736,�k,5.0,��
2019/04/21,03:00,0.776,1.139,0.782,1.450,1.062,0.442,0.778,0.736,�k,5.2,��
2019/04/21,03:10,0.776,1.138,0.782,1.450,1.062,0.441,0.778,0.736,�k�k��,5.5,��
2019/04/21,03:20,0.778,1.138,0.784,1.451,1.061,0.442,0.780,0.736,�k�k��,5.6,��
2019/04/21,03:30,0.778,1.138,0.784,1.450,1.062,0.442,0.778,0.735,�k�k��,6.5,��
2019/04/21,03:40,0.776,1.139,0.782,1.448,1.060,0.442,0.780,0.738,�k�k��,6.8,��
2019/04/21,03:50,0.778,1.139,0.784,1.451,1.061,0.440,0.778,0.737,�k�k��,5.9,��
2019/04/21,04:00,0.777,1.138,0.782,1.450,1.059,0.441,0.781,0.736,�k�k��,5.8,��
2019/04/21,04:10,0.775,1.136,0.782,1.450,1.060,0.440,0.778,0.735,�k�k��,5.7,��
2019/04/21,04:20,0.774,1.135,0.782,1.453,1.060,0.440,0.778,0.735,�k�k��,6.4,��
2019/04/21,04:30,0.777,1.138,0.784,1.451,1.061,0.441,0.777,0.737,�k�k��,6.4,��
2019/04/21,04:40,0.776,1.139,0.781,1.450,1.061,0.441,0.778,0.736,�k�k��,6.1,��
2019/04/21,04:50,0.776,1.137,0.784,1.451,1.060,0.441,0.779,0.737,�k�k��,5.6,��
2019/04/21,05:00,0.777,1.140,0.782,1.451,1.060,0.440,0.778,0.735,�k,6.4,��
2019/04/21,05:10,0.776,1.137,0.781,1.453,1.062,0.441,0.780,0.736,�k�k��,6.6,��
2019/04/21,05:20,0.776,1.139,0.783,1.454,1.061,0.440,0.778,0.735,�k,6.7,��
2019/04/21,05:30,0.775,1.136,0.783,1.451,1.061,0.440,0.779,0.737,�k,5.8,��
2019/04/21,05:40,0.776,1.136,0.782,1.452,1.061,0.439,0.778,0.737,�k�k��,5.4,��
2019/04/21,05:50,0.775,1.141,0.784,1.451,1.061,0.439,0.778,0.737,�k�k��,5.5,��
2019/04/21,06:00,0.776,1.140,0.783,1.452,1.060,0.440,0.778,0.737,�k�k��,5.2,��
2019/04/21,06:10,0.776,1.141,0.781,1.450,1.062,0.439,0.779,0.736,�k�k��,5.0,��
2019/04/21,06:20,0.776,1.141,0.782,1.450,1.059,0.440,0.779,0.737,�k�k��,3.7,��
2019/04/21,06:30,0.776,1.138,0.784,1.450,1.062,0.441,0.778,0.736,�k�k��,4.4,��
2019/04/21,06:40,0.776,1.137,0.782,1.452,1.060,0.440,0.778,0.737,�k�k��,6.1,��
2019/04/21,06:50,0.775,1.140,0.783,1.450,1.058,0.441,0.776,0.735,�k�k��,5.3,��
2019/04/21,07:00,0.775,1.137,0.782,1.452,1.061,0.441,0.777,0.737,�k,5.5,��
2019/04/21,07:10,0.774,1.141,0.783,1.453,1.060,0.442,0.778,0.737,�k,5.7,��
2019/04/21,07:20,0.775,1.139,0.783,1.452,1.060,0.440,0.777,0.735,�k,5.1,��
2019/04/21,07:30,0.775,1.139,0.783,1.450,1.061,0.440,0.780,0.736,�k,4.6,��
2019/04/21,07:40,0.776,1.138,0.783,1.452,1.062,0.439,0.778,0.736,�k,4.4,��
2019/04/21,07:50,0.776,1.136,0.782,1.451,1.059,0.438,0.778,0.734,�k,4.3,��
2019/04/21,08:00,0.777,1.138,0.784,1.450,1.062,0.440,0.779,0.736,�k,3.2,��
2019/04/21,08:10,0.775,1.139,0.783,1.450,1.060,0.440,0.777,0.736,�k,3.7,��
2019/04/21,08:20,0.776,1.137,0.782,1.450,1.062,0.440,0.779,0.737,�k,3.1,��
2019/04/21,08:30,0.776,1.139,0.783,1.450,1.063,0.440,0.779,0.735,�k,2.6,��
2019/04/21,08:40,0.776,1.139,0.784,1.450,1.060,0.440,0.778,0.736,�k,2.9,�L
2019/04/21,08:50,0.774,1.139,0.783,1.451,1.061,0.439,0.779,0.734,�k�k��,2.6,�L
2019/04/21,09:00,0.779,1.137,0.783,1.451,1.060,0.440,0.778,0.738,�k,2.5,��
2019/04/21,09:10,0.775,1.139,0.783,1.451,1.063,0.438,0.777,0.737,�k�k��,1.7,�L
2019/04/21,09:20,0.777,1.139,0.785,1.454,1.059,0.441,0.779,0.737,�k�k��,2.0,�L
2019/04/21,09:30,0.777,1.138,0.783,1.449,1.062,0.440,0.778,0.737,�k�k��,1.5,��
2019/04/21,09:40,0.776,1.139,0.785,1.452,1.062,0.440,0.777,0.738,�k�k��,1.5,��
2019/04/21,09:50,0.776,1.139,0.785,1.451,1.063,0.441,0.779,0.738,�k��,1.5,��
2019/04/21,10:00,0.777,1.140,0.787,1.452,1.061,0.439,0.778,0.738,�k��,1.4,��
2019/04/21,10:10,0.777,1.138,0.785,1.450,1.061,0.440,0.777,0.736,�k��,1.7,��
2019/04/21,10:20,0.777,1.139,0.784,1.450,1.061,0.440,0.778,0.738,�k�k��,1.7,��
2019/04/21,10:30,0.778,1.141,0.785,1.452,1.061,0.440,0.779,0.737,�k�k��,1.7,��
2019/04/21,10:40,0.777,1.141,0.783,1.451,1.061,0.440,0.778,0.739,�k�k��,2.3,��
2019/04/21,10:50,0.776,1.139,0.783,1.452,1.059,0.439,0.777,0.734,�k�k��,2.0,��
2019/04/21,11:00,0.774,1.141,0.784,1.453,1.060,0.441,0.780,0.734,�k�k��,2.2,��
2019/04/21,11:10,0.777,1.137,0.785,1.452,1.059,0.440,0.779,0.734,�k�k��,1.7,��
2019/04/21,11:20,0.775,1.139,0.786,1.454,1.060,0.441,0.777,0.735,�k,1.5,�L
2019/04/21,11:30,0.777,1.138,0.784,1.452,1.061,0.442,0.779,0.735,���쓌,0.8,�L
2019/04/21,11:40,0.774,1.137,0.785,1.453,1.060,0.438,0.779,0.734,��쓌,0.9,��
2019/04/21,11:50,0.777,1.136,0.785,1.455,1.059,0.441,0.776,0.735,��쓌,1.2,��
2019/04/21,12:00,0.776,1.136,0.783,1.454,1.059,0.442,0.780,0.733,�쓌,1.2,��
2019/04/21,12:10,0.777,1.135,0.785,1.451,1.060,0.441,0.777,0.737,���쓌,0.9,��
2019/04/21,12:20,0.775,1.138,0.785,1.454,1.059,0.439,0.777,0.735,���쓌,1.2,��
2019/04/21,12:30,0.775,1.137,0.784,1.453,1.060,0.439,0.779,0.735,�쓌,1.5,��
2019/04/21,12:40,0.776,1.138,0.783,1.453,1.059,0.440,0.777,0.734,�쓌,2.2,��
2019/04/21,12:50,0.775,1.136,0.786,1.455,1.060,0.440,0.778,0.735,�쓌,1.7,��
2019/04/21,13:00,0.776,1.136,0.784,1.452,1.060,0.439,0.778,0.735,���쓌,1.7,��
2019/04/21,13:10,0.774,1.138,0.784,1.453,1.058,0.440,0.777,0.737,�쓌,2.6,��
2019/04/21,13:20,0.775,1.137,0.784,1.454,1.061,0.439,0.779,0.734,�쓌,2.3,��
2019/04/21,13:30,0.777,1.138,0.784,1.455,1.062,0.440,0.779,0.735,�쓌,2.5,��
2019/04/21,13:40,0.776,1.138,0.784,1.454,1.060,0.442,0.780,0.735,���쓌,2.5,��
2019/04/21,13:50,0.778,1.139,0.784,1.452,1.063,0.441,0.779,0.733,���쓌,2.3,��
2019/04/21,14:00,0.773,1.141,0.782,1.457,1.060,0.442,0.779,0.733,�쓌,3.0,��
2019/04/21,14:10,0.774,1.140,0.781,1.455,1.063,0.442,0.777,0.736,�쓌,2.3,��
2019/04/21,14:20,0.774,1.138,0.783,1.453,1.062,0.442,0.779,0.735,���쓌,2.0,��
2019/04/21,14:30,0.777,1.140,0.780,1.454,1.061,0.439,0.778,0.734,���쓌,2.8,��
2019/04/21,14:40,0.775,1.138,0.783,1.457,1.062,0.439,0.781,0.736,���쓌,2.8,��
2019/04/21,14:50,0.775,1.134,0.782,1.455,1.060,0.440,0.779,0.735,���쓌,2.3,��
2019/04/21,15:00,0.774,1.140,0.781,1.454,1.062,0.440,0.779,0.736,�쓌,2.3,��
2019/04/21,15:10,0.777,1.140,0.784,1.456,1.062,0.441,0.778,0.734,���쓌,1.2,��
2019/04/21,15:20,0.775,1.139,0.783,1.454,1.062,0.440,0.780,0.734,��,1.7,��
2019/04/21,15:30,0.777,1.139,0.783,1.457,1.062,0.441,0.779,0.734,�쓌,2.0,��
2019/04/21,15:40,0.775,1.137,0.783,1.456,1.063,0.441,0.779,0.734,�쓌,1.7,��
2019/04/21,15:50,0.776,1.139,0.781,1.453,1.060,0.440,0.779,0.735,�쓌,1.5,��
2019/04/21,16:00,0.775,1.140,0.782,1.454,1.062,0.441,0.781,0.735,��쓌,1.5,��
2019/04/21,16:10,0.774,1.141,0.783,1.458,1.060,0.441,0.779,0.733,���쓌,1.4,��
2019/04/21,16:20,0.776,1.139,0.783,1.454,1.060,0.441,0.778,0.733,���쓌,1.2,��
2019/04/21,16:30,0.778,1.141,0.785,1.457,1.060,0.443,0.779,0.734,���k��,0.9,��
2019/04/21,16:40,0.776,1.143,0.786,1.453,1.060,0.441,0.778,0.733,-,CALM,��
2019/04/21,16:50,0.780,1.143,0.785,1.455,1.059,0.443,0.778,0.736,��쓌,1.2,��
2019/04/21,17:00,0.779,1.143,0.785,1.456,1.060,0.442,0.779,0.736,��쐼,1.1,��
2019/04/21,17:10,0.777,1.142,0.786,1.453,1.062,0.441,0.779,0.737,��쓌,1.1,��
2019/04/21,17:20,0.778,1.142,0.784,1.456,1.064,0.441,0.778,0.736,��쓌,0.9,��
2019/04/21,17:30,0.778,1.143,0.785,1.453,1.064,0.442,0.779,0.738,���쓌,0.6,��
2019/04/21,17:40,0.779,1.140,0.786,1.455,1.062,0.441,0.778,0.738,�쐼,0.6,��
2019/04/21,17:50,0.778,1.142,0.787,1.454,1.060,0.441,0.778,0.739,�쐼,0.9,��
2019/04/21,18:00,0.779,1.143,0.785,1.454,1.060,0.442,0.780,0.737,�쐼,0.6,��
2019/04/21,18:10,0.779,1.141,0.783,1.455,1.066,0.442,0.780,0.738,�쐼,0.8,��
2019/04/21,18:20,0.776,1.141,0.785,1.454,1.065,0.443,0.779,0.738,��,0.9,��
2019/04/21,18:30,0.778,1.142,0.785,1.456,1.063,0.442,0.779,0.739,��,0.8,��
2019/04/21,18:40,0.778,1.143,0.784,1.454,1.063,0.442,0.780,0.739,�쐼,0.9,��
2019/04/21,18:50,0.777,1.142,0.786,1.454,1.062,0.442,0.779,0.737,�쐼,1.2,��
2019/04/21,19:00,0.777,1.140,0.783,1.454,1.065,0.441,0.778,0.737,���쐼,0.9,��
2019/04/21,19:10,0.778,1.140,0.785,1.455,1.064,0.442,0.780,0.738,�쐼,1.2,��
2019/04/21,19:20,0.778,1.141,0.785,1.455,1.064,0.441,0.777,0.738,��쐼,1.7,��
2019/04/21,19:30,0.778,1.140,0.783,1.457,1.063,0.440,0.779,0.737,��쐼,1.5,��
2019/04/21,19:40,0.778,1.145,0.782,1.454,1.063,0.443,0.780,0.737,��쐼,2.2,��
2019/04/21,19:50,0.778,1.140,0.784,1.455,1.063,0.440,0.779,0.737,��,2.3,��
2019/04/21,20:00,0.777,1.141,0.784,1.457,1.063,0.442,0.781,0.737,��쐼,1.7,��
2019/04/21,20:10,0.777,1.140,0.785,1.452,1.065,0.442,0.779,0.735,��,1.9,��
2019/04/21,20:20,0.778,1.141,0.784,1.452,1.063,0.440,0.779,0.739,��,1.4,��
2019/04/21,20:30,0.779,1.143,0.785,1.455,1.064,0.441,0.781,0.738,��,2.5,��
2019/04/21,20:40,0.777,1.141,0.785,1.455,1.065,0.442,0.780,0.738,��,3.4,��
2019/04/21,20:50,0.777,1.142,0.787,1.457,1.060,0.442,0.780,0.737,��,2.8,��
2019/04/21,21:00,0.777,1.141,0.786,1.454,1.064,0.442,0.781,0.737,��쐼,2.3,��
2019/04/21,21:10,0.777,1.141,0.784,1.454,1.063,0.442,0.779,0.737,��쐼,2.0,��
2019/04/21,21:20,0.777,1.140,0.786,1.453,1.064,0.442,0.780,0.738,��쐼,2.5,��
2019/04/21,21:30,0.778,1.141,0.786,1.453,1.063,0.444,0.779,0.737,��쐼,2.0,��
2019/04/21,21:40,0.778,1.139,0.785,1.453,1.065,0.442,0.781,0.739,��쐼,2.9,��
2019/04/21,21:50,0.778,1.138,0.785,1.456,1.067,0.442,0.780,0.738,��쐼,2.9,��
2019/04/21,22:00,0.778,1.140,0.786,1.455,1.063,0.442,0.781,0.737,��,2.3,��
2019/04/21,22:10,0.780,1.141,0.786,1.456,1.065,0.443,0.781,0.738,��,2.8,�L
2019/04/21,22:20,0.779,1.141,0.785,1.455,1.063,0.444,0.779,0.737,��,2.2,�L
2019/04/21,22:30,0.779,1.142,0.787,1.455,1.064,0.443,0.779,0.738,��,2.0,�L
2019/04/21,22:40,0.779,1.139,0.786,1.456,1.065,0.444,0.779,0.737,��,2.0,�L
2019/04/21,22:50,0.778,1.142,0.788,1.457,1.064,0.443,0.782,0.737,��,1.9,�L
2019/04/21,23:00,0.779,1.140,0.787,1.458,1.067,0.442,0.782,0.737,��쐼,2.3,�L
2019/04/21,23:10,0.779,1.142,0.787,1.457,1.065,0.443,0.782,0.739,��,2.6,�L
2019/04/21,23:20,0.780,1.141,0.785,1.455,1.065,0.444,0.782,0.740,��쐼,2.3,�L
2019/04/21,23:30,0.778,1.140,0.787,1.458,1.064,0.443,0.782,0.739,��쐼,2.3,�L
2019/04/21,23:40,0.779,1.141,0.788,1.454,1.064,0.445,0.781,0.738,�쐼,1.5,��
2019/04/21,23:50,0.780,1.142,0.785,1.454,1.064,0.444,0.782,0.738,��,1.5,��
